Regional Weather Roundup
Issued by NWS Green Bay, WI

Home | Current Version | Previous Version | Text Only | Print | Product List | Glossary On
Versions: 1 2 3 4 5 6 7 8 9 10 11 12 13 14 15 16 17 18 19 20 21 22 23 24 25 26 27 28 29 30 31 32 33 34 35 36 37 38 39 40 41 42 43 44 45 46 47 48 49 50
000
ASUS43 KGRB 221911
RWRGRB

NORTH-CENTRAL AND NORTHEAST WISCONSIN REGIONAL WEATHER ROUNDUP
NATIONAL WEATHER SERVICE GREEN BAY WI
200 PM CDT SAT APR 22 2017

WIZ005-009-010>012-018-019-222000-
NORTH CENTRAL WISCONSIN

CITY           SKY/WX    TMP DP  RH WIND       PRES   REMARKS
IRONWOOD       SUNNY     64  28  25 W18G26    30.11F
MANITOWISH WTR SUNNY     63  30  28 W12G21    30.13F
ARBOR VITAE    SUNNY     64  28  26 W13G18    30.13F
EAGLE RIVER    SUNNY     63  24  23 NW9G20    30.13F
LAND O LAKES   SUNNY     64  25  23 W9G18     30.14F
RHINELANDER    SUNNY     65  29  25 W18       30.16F
PHILLIPS       MOSUNNY   62  30  30 W9        30.15F
ANTIGO         SUNNY     60  28  28 NW6       30.17F
TOMAHAWK       SUNNY     62  28  27 SW5       30.16F
MERRILL        SUNNY     63  30  29 SW8       30.17F
$$

WIZ013-073-222000-
NORTHEAST WISCONSIN

CITY           SKY/WX    TMP DP  RH WIND       PRES   REMARKS
IRON MOUNTAIN  SUNNY     66  25  21 VRB6      30.11F
MARINETTE      SUNNY     62  29  28 SW8       30.16F
OCONTO         SUNNY     60  31  33 SE8       30.17F
$$

WIZ017-030-035>037-045-222000-
CENTRAL WISCONSIN

CITY           SKY/WX    TMP DP  RH WIND       PRES   REMARKS
MEDFORD        SUNNY     59  31  35 SW8       30.18F
WAUSAU         SUNNY     61  28  28 VRB7      30.17F
MOSINEE        SUNNY     61  28  29 VRB6      30.20F
MARSHFIELD     SUNNY     61  29  29 W6        30.19F
WISC RAPIDS    SUNNY     64  21  19 NW6       30.20F
STEVENS POINT  SUNNY     60  27  29 NW7       30.19F
WAUPACA        SUNNY     65  18  16 CALM      30.19F
SHAWANO        SUNNY     65  27  23 SW10      30.18F
CLINTONVILLE   SUNNY     63  25  23 SW5       30.18F
WAUTOMA        SUNNY     62  22  21 VRB6      30.20F
$$

WIZ038-039-048-051-222000-
FOX VALLEY

CITY           SKY/WX    TMP DP  RH WIND       PRES   REMARKS
NWS GREEN BAY  SUNNY     61  33  35 CALM      30.19F
APPLETON       MOSUNNY   59  25  27 VRB5      30.19F
OSHKOSH        SUNNY     59  33  37 NW5       30.20F
FOND DU LAC    SUNNY     59  29  31 VRB3      30.20F
$$

WIZ022-050-052-222000-
EAST CENTRAL WISCONSIN

CITY           SKY/WX    TMP DP  RH WIND       PRES   REMARKS
EPHRAIM        FAIR      58  22  25 W5        30.16F
WASHINGTON ISL FAIR      54  26  33 S9        30.17S
STURGEON BAY   SUNNY     60  26  27 SW7       30.19F
MANITOWOC      SUNNY     54  29  38 SE9       30.20F
SHEBOYGAN      SUNNY     58  28  32 CALM      30.19F
$$

LMZ563-521-522-541>543-222000-
LAKESHORE

STATION/POSITION TIME  TEMP    WIND        PRES    VSBY  WAVE
                       AIR SEA DIR/SP/G                  HT/PER
                 (UTC) (F)     (DEG/KT/KT) (MB)    (MI)  (FT/S)
SHEBOYGAN LKSHOR 1900   48     100/ 10/ 10 1022.8F
KEWAUNEE LKSHORE 1848   45     170/  5/  7 1022.1F
NORTHPORT PIER   1840   49     150/  6/ 11 1021.7F
N MID LAKE BUOY  1850   40 38  180/  6/  8 1023.2F         0
SISTER BAY LKSHO 1821   59        CALM       N/A
CHAMBERS ISLAND  1840   56     190/  8/ 11 1021.0F
MENOMINEE LKSHOR 1848   52     160/ 13/ 15 1020.5F
$$




USA.gov is the U.S. government's official web portal to all federal, state and local government web resources and services.